sat.trackr.live / text

‹ back to catalog

SUPERVIEW NEO-1 04

NORAD 63126 · 2025-040B

PAYLOAD ACTIVE UNKNOWN

§ Identity

Operator
Country
PRC
Launch date
2025-02-27
Launch site
JSC
Launch vehicle
Mass (kg)
RCS (m²)

External: N2YO · Heavens-Above · Gunter

§ Orbital elements

Epoch: 2026-09-22T22:11:11.630688Z

Period
94.63 min
Inclination
97.3596°
Eccentricity
0.0000434
Mean motion
15.21644171 rev/d
Perigee alt
500.6 km
Apogee alt
501.2 km
Semi-major
6,879.0 km
B*
1.5618e-4
RAAN
18.2326°
Arg perigee
28.5692°
Mean anomaly
331.5568°
Rev number
8,705

§ Raw data

SUPERVIEW NEO-1 041 63126U 25040B   26265.92444017  .00003460  00000+0  15618-3 0  99972 63126  97.3596  18.2326 0000434  28.5692 331.5568 15.21644171 87057

JSON: /api/v1/satellites/63126 · /tle

For live sub-satellite position, see the globe view (requires WebGL).

§ Visibility from observer

Set your observer location to see the next 7 days of passes ≥ 10°. The values pass through the URL so the page stays shareable.

No JS? Fill the form by hand. The geolocation button needs JavaScript.